Weather History for Fairbanks Ft. Wainwright, AK

Change the Weather History Date:

Saturday, February 2, 2013

  Actual Average Record
Temperature  
Mean Temperature 2 °F -  
Max Temperature 10 °F 2 °F 26 °F (2007)
Min Temperature -7 °F -9 °F -47 °F (2005)
Degree Days  
Heating Degree Days 64    
Moisture  
Dew Point -4 °F    
Average Humidity 82    
Maximum Humidity 91    
Minimum Humidity 72    
Precipitation  
Precipitation 0.00 in - - ()
Sea Level Pressure  
Sea Level Pressure 29.70 in    
Wind  
Wind Speed 1 mph (NNE)    
Max Wind Speed 4 mph    
Max Gust Speed -    
Visibility 9 miles    
Events      
Averages and records for this station are not official NWS values.
T = Trace of Precipitation, MM = Missing Value Source: NWS Daily Summary

Daily Weather History Graph

Daily Weather History Graph

Search for Another Location

Airport:

Trip Planner

Search our weather history database for the weather conditions in past years. The results will help you decide how hot, cold, wet, or windy it might be!

Date:

Astronomy

Feb. 02, 2013 Rise Set
Actual Time 9:31 AM AKST 4:38 PM AKST
Civil Twilight 8:33 AM AKST 5:36 PM AKST
Nautical Twilight 7:33 AM AKST 6:36 PM AKST
Astronomical Twilight 6:36 AM AKST 7:33 PM AKST
Moon 1:45 AM AKST (2/2) 9:49 AM AKST (2/2)
Length of Visible Light 9h 03m
Length of Day
7h 06m
Waning Gibbous, 58% of the Moon is Illuminated
Feb 2
Waning Gibbous
Feb 3
Last Quarter
Feb 9
New
Feb 17
First Quarter
Feb 25
Full

Hourly Weather History & Observations

Time (AKST) Temp. Windchill Dew Point Humidity Pressure Visibility Wind Dir Wind Speed Gust Speed Precip Events Conditions
12:56 AM -7.1 °F -15.9 °F -13.0 °F 75% 29.91 in 10.0 mi NNE 3.5 mph - N/A   Clear
1:56 AM -2.9 °F - -9.0 °F 75% 29.88 in 10.0 mi Calm Calm - N/A   Clear
2:56 AM -0.9 °F - -8.0 °F 72% 29.87 in 10.0 mi Calm Calm - N/A   Clear
3:56 AM -2.0 °F - -7.1 °F 79% 29.83 in 10.0 mi Calm Calm - N/A   Clear
4:56 AM -4.0 °F - -9.0 °F 79% 29.81 in 10.0 mi Calm Calm - N/A   Clear
5:56 AM -2.9 °F - -8.0 °F 79% 29.78 in 10.0 mi Calm Calm - N/A   Clear
6:56 AM -0.9 °F -8.9 °F -6.0 °F 79% 29.77 in 10.0 mi West 3.5 mph - N/A   Clear
7:56 AM 3.0 °F -4.4 °F -2.0 °F 80% 29.75 in 10.0 mi East 3.5 mph - N/A   Scattered Clouds
8:56 AM 8.1 °F 1.4 °F 3.9 °F 83% 29.74 in 10.0 mi NE 3.5 mph - N/A   Clear
9:56 AM 5.0 °F - 1.0 °F 84% 29.73 in 10.0 mi Calm Calm - N/A   Clear
10:56 AM 1.9 °F - -0.0 °F 91% 29.73 in 10.0 mi Calm Calm - N/A   Clear
11:56 AM -2.0 °F - -6.0 °F 83% 29.73 in 10.0 mi Calm Calm - N/A   Clear
12:56 PM -0.9 °F - -4.0 °F 87% 29.73 in 10.0 mi Calm Calm - N/A   Overcast
1:56 PM 3.0 °F - -2.0 °F 80% 29.70 in 10.0 mi Calm Calm - N/A   Mostly Cloudy
2:56 PM 10.0 °F - 6.1 °F 84% 29.68 in 10.0 mi Calm Calm - N/A   Clear
3:56 PM 5.0 °F - 1.0 °F 84% 29.66 in 10.0 mi Calm Calm - N/A   Clear
4:56 PM 3.0 °F - -0.0 °F 87% 29.65 in 10.0 mi Calm Calm - N/A   Clear
5:47 PM -0.4 °F - -4.0 °F 85% 29.61 in 1.8 mi Calm Calm - N/A   Clear
5:54 PM 1.4 °F - -2.2 °F 85% 29.61 in 0.8 mi Calm Calm - N/A   Clear
5:56 PM 1.9 °F - -2.0 °F 83% 29.65 in 0.8 mi Calm Calm - N/A   Clear
6:01 PM 1.4 °F - -2.2 °F 85% 29.61 in - Calm Calm - N/A   Clear
6:09 PM 1.4 °F - -2.2 °F 85% 29.61 in 10.0 mi Calm Calm - N/A   Clear
6:56 PM -0.9 °F - -5.1 °F 83% 29.64 in 10.0 mi Calm Calm - N/A   Clear
7:56 PM -2.0 °F - -7.1 °F 79% 29.62 in 10.0 mi Calm Calm - N/A   Clear
8:56 PM -5.1 °F - -9.0 °F 83% 29.61 in 10.0 mi Calm Calm - N/A   Clear
9:56 PM -2.0 °F - -6.0 °F 83% 29.59 in 10.0 mi Calm Calm - N/A   Partly Cloudy
10:56 PM -0.0 °F - -4.0 °F 83% 29.58 in 10.0 mi Calm Calm - N/A   Clear
11:56 PM 1.0 °F -6.7 °F -5.1 °F 75% 29.57 in 10.0 mi NNW 3.5 mph - N/A   Clear